| time (UTC) | temp F | wind direction | speed MPH | gust MPH | rain 1hr in | rain 24hr in | rain mn in | humidity % | barometer mb |
| 20260502123622 | 50 | 317 | 0.0 | 0.0 | 0.00 | 0.01 | 0.01 | 77 | 1015.9 |
| 20260502122902 | 50 | 317 | 0.0 | 0.0 | 0.00 | 0.01 | 0.01 | 77 | 1015.8 |
| 20260502122628 | 49 | 317 | 0.0 | 0.0 | 0.00 | 0.01 | 0.01 | 78 | 1015.8 |
| 20260502121902 | 49 | 317 | 0.0 | 0.0 | 0.00 | 0.01 | 0.01 | 80 | 1015.7 |
| 20260502121851 | 49 | 317 | 0.0 | 0.0 | 0.00 | 0.01 | 0.01 | 81 | 1015.5 |
| 20260502120902 | 49 | 317 | 0.0 | 0.0 | 0.00 | 0.01 | 0.01 | 82 | 1015.4 |
| 20260502120402 | 49 | 317 | 0.0 | 0.0 | 0.00 | 0.01 | 0.01 | 84 | 1015.3 |
| 20260502115907 | 49 | 317 | 0.0 | 0.0 | 0.00 | 0.01 | 0.01 | 85 | 1015.4 |
| 20260502115404 | 49 | 317 | 0.0 | 0.0 | 0.00 | 0.01 | 0.01 | 85 | 1015.3 |
| 20260502114902 | 49 | 317 | 0.0 | 0.0 | 0.00 | 0.01 | 0.01 | 85 | 1015.2 |
| 20260502114402 | 49 | 317 | 0.0 | 0.0 | 0.00 | 0.01 | 0.01 | 85 | 1015.2 |
| 20260502113902 | 49 | 317 | 0.0 | 0.0 | 0.00 | 0.01 | 0.01 | 84 | 1015.1 |
| 20260502113403 | 49 | 317 | 0.0 | 0.0 | 0.00 | 0.01 | 0.01 | 84 | 1015.1 |
| 20260502112903 | 50 | 317 | 0.0 | 0.0 | 0.00 | 0.01 | 0.01 | 84 | 1015.2 |
| 20260502112618 | 50 | 317 | 0.0 | 0.0 | 0.00 | 0.01 | 0.01 | 84 | 1015.1 |
| 20260502111900 | 50 | 317 | 0.0 | 0.0 | 0.00 | 0.01 | 0.01 | 84 | 1015.0 |
| 20260502111357 | 50 | 317 | 0.0 | 0.0 | 0.00 | 0.01 | 0.01 | 84 | 1015.0 |
| 20260502110855 | 50 | 317 | 0.0 | 0.0 | 0.00 | 0.01 | 0.01 | 84 | 1014.9 |
| 20260502110355 | 50 | 317 | 0.0 | 0.0 | 0.00 | 0.01 | 0.01 | 83 | 1014.9 |
| 20260502105854 | 50 | 317 | 0.0 | 0.0 | 0.00 | 0.01 | 0.01 | 83 | 1015.0 |
| 20260502105351 | 50 | 317 | 0.0 | 0.0 | 0.00 | 0.01 | 0.01 | 83 | 1015.0 |
| 20260502104851 | 50 | 317 | 0.0 | 0.0 | 0.00 | 0.01 | 0.01 | 82 | 1015.0 |
| 20260502104351 | 51 | 317 | 0.0 | 0.0 | 0.00 | 0.01 | 0.01 | 82 | 1014.9 |
| 20260502103849 | 51 | 317 | 0.0 | 0.0 | 0.00 | 0.01 | 0.01 | 82 | 1014.9 |
| 20260502103347 | 51 | 317 | 0.0 | 0.0 | 0.00 | 0.01 | 0.01 | 81 | 1014.8 |
| 20260502103335 | 51 | 317 | 0.0 | 0.0 | 0.00 | 0.01 | 0.01 | 82 | 1014.8 |
| 20260502102345 | 51 | 317 | 0.0 | 0.0 | 0.00 | 0.01 | 0.01 | 82 | 1014.7 |
| 20260502101843 | 51 | 317 | 0.0 | 0.0 | 0.00 | 0.01 | 0.01 | 82 | 1014.5 |
| 20260502101832 | 51 | 317 | 0.0 | 0.0 | 0.00 | 0.01 | 0.01 | 81 | 1014.4 |
| 20260502100841 | 51 | 317 | 0.0 | 0.0 | 0.00 | 0.01 | 0.01 | 81 | 1014.3 |
| 20260502100601 | 52 | 317 | 0.0 | 0.0 | 0.00 | 0.01 | 0.01 | 82 | 1014.4 |
| 20260502091336 | 53 | 317 | 0.0 | 0.0 | 0.00 | 0.01 | 0.01 | 79 | 1014.0 |
| 20260502091054 | 53 | 317 | 0.0 | 1.0 | 0.00 | 0.01 | 0.01 | 79 | 1014.0 |
| 20260502090335 | 53 | 317 | 0.0 | 1.0 | 0.00 | 0.01 | 0.01 | 79 | 1014.0 |
| 20260502071331 | 55 | 329 | 0.0 | 4.0 | 0.00 | 0.00 | 0.00 | 69 | 1014.4 |
| 20260502071048 | 55 | 329 | 0.0 | 0.0 | 0.00 | 0.00 | 0.00 | 69 | 1014.3 |
| 20260502070551 | 55 | 329 | 0.0 | 0.0 | 0.00 | 0.00 | 0.00 | 68 | 1014.2 |
| 20260502065831 | 55 | 329 | 0.0 | 0.0 | 0.00 | 0.00 | 0.00 | 67 | 1014.1 |
| 20260502065811 | 55 | 329 | 0.0 | 0.0 | 0.00 | 0.00 | 0.00 | 67 | 1014.1 |
| 20260502064830 | 56 | 329 | 0.0 | 0.0 | 0.00 | 0.00 | 0.00 | 65 | 1014.1 |
| 20260502064330 | 56 | 329 | 0.0 | 0.0 | 0.00 | 0.00 | 0.00 | 65 | 1014.2 |
| 20260502063830 | 56 | 329 | 0.0 | 0.0 | 0.00 | 0.00 | 0.00 | 64 | 1014.2 |
| 20260502063331 | 56 | 329 | 0.0 | 0.0 | 0.00 | 0.00 | 0.00 | 64 | 1014.3 |
| 20260502062831 | 56 | 329 | 0.0 | 0.0 | 0.00 | 0.00 | 0.00 | 64 | 1014.3 |
| 20260502062330 | 56 | 329 | 0.0 | 0.0 | 0.00 | 0.00 | 0.00 | 63 | 1014.1 |
| 20260502061830 | 56 | 329 | 0.0 | 0.0 | 0.00 | 0.00 | 0.00 | 63 | 1014.1 |
| 20260502061330 | 55 | 329 | 0.0 | 0.0 | 0.00 | 0.00 | 0.00 | 63 | 1014.1 |
| 20260502060831 | 54 | 329 | 0.0 | 0.0 | 0.00 | 0.00 | 0.00 | 66 | 1014.1 |
| 20260502060330 | 53 | 329 | 0.0 | 0.0 | 0.00 | 0.00 | 0.00 | 69 | 1014.1 |
| 20260502055828 | 53 | 329 | 0.0 | 0.0 | 0.00 | 0.00 | 0.00 | 72 | 1014.1 |
| 20260502055547 | 52 | 329 | 0.0 | 0.0 | 0.00 | 0.00 | 0.00 | 74 | 1014.0 |
| 20260502054817 | 52 | 329 | 0.0 | 0.0 | 0.00 | 0.00 | 0.00 | 76 | 1014.0 |
| 20260502054310 | 52 | 329 | 0.0 | 0.0 | 0.00 | 0.00 | 0.00 | 77 | 1014.0 |
| 20260502053804 | 51 | 329 | 0.0 | 0.0 | 0.00 | 0.00 | 0.00 | 76 | 1014.1 |
| 20260502053304 | 52 | 329 | 0.0 | 0.0 | 0.00 | 0.00 | 0.00 | 75 | 1014.2 |
| 20260502052804 | 52 | 329 | 0.0 | 0.0 | 0.00 | 0.00 | 0.00 | 74 | 1014.2 |
| 20260502052306 | 52 | 329 | 0.0 | 0.0 | 0.00 | 0.00 | 0.00 | 74 | 1014.1 |
| 20260502051804 | 52 | 329 | 0.0 | 0.0 | 0.00 | 0.00 | 0.00 | 73 | 1014.1 |
| 20260502051750 | 52 | 329 | 0.0 | 0.0 | 0.00 | 0.00 | 0.00 | 72 | 1014.0 |
| 20260502050805 | 53 | 329 | 0.0 | 0.0 | 0.00 | 0.00 | 0.00 | 73 | 1013.9 |
| 20260502050305 | 53 | 329 | 0.0 | 2.0 | 0.00 | 0.00 | 0.00 | 72 | 1013.8 |
| 20260502045805 | 53 | 329 | 0.0 | 2.0 | 0.00 | 0.00 | 0.00 | 71 | 1013.8 |
| 20260502045305 | 54 | 329 | 0.0 | 0.0 | 0.00 | 0.00 | 0.00 | 70 | 1013.7 |
| 20260502044802 | 54 | 329 | 0.0 | 0.0 | 0.00 | 0.00 | 0.00 | 70 | 1013.7 |
| 20260502044303 | 54 | 329 | 0.0 | 0.0 | 0.00 | 0.00 | 0.00 | 69 | 1013.6 |
| 20260502043803 | 55 | 329 | 0.0 | 0.0 | 0.00 | 0.00 | 0.00 | 69 | 1013.5 |
| 20260502043303 | 55 | 329 | 0.0 | 0.0 | 0.00 | 0.00 | 0.00 | 68 | 1013.6 |
| 20260502043248 | 54 | 329 | 0.0 | 0.0 | 0.00 | 0.00 | 0.00 | 69 | 1013.6 |
| 20260502042305 | 54 | 329 | 0.0 | 0.0 | 0.00 | 0.00 | 0.00 | 68 | 1013.7 |
| 20260502041802 | 54 | 329 | 0.0 | 0.0 | 0.00 | 0.00 | 0.00 | 68 | 1013.9 |
| 20260502041302 | 54 | 329 | 0.0 | 0.0 | 0.00 | 0.00 | 0.00 | 69 | 1014.0 |
| 20260502040802 | 54 | 329 | 0.0 | 0.0 | 0.00 | 0.00 | 0.00 | 72 | 1014.1 |
| 20260502040302 | 53 | 329 | 0.0 | 0.0 | 0.00 | 0.00 | 0.00 | 73 | 1014.0 |
| 20260502035802 | 53 | 329 | 0.0 | 0.0 | 0.00 | 0.00 | 0.00 | 74 | 1014.0 |
| 20260502035306 | 53 | 329 | 0.0 | 0.0 | 0.00 | 0.00 | 0.00 | 73 | 1014.0 |
| 20260502034803 | 53 | 329 | 0.0 | 0.0 | 0.00 | 0.00 | 0.00 | 72 | 1013.9 |
| 20260502034533 | 53 | 329 | 0.0 | 0.0 | 0.00 | 0.00 | 0.00 | 70 | 1013.7 |
| 20260502033802 | 53 | 329 | 0.0 | 0.0 | 0.00 | 0.00 | 0.00 | 69 | 1013.7 |
| 20260502033303 | 54 | 329 | 0.0 | 0.0 | 0.00 | 0.00 | 0.00 | 68 | 1013.7 |
| 20260502032802 | 54 | 329 | 0.0 | 0.0 | 0.00 | 0.00 | 0.00 | 67 | 1013.6 |
| 20260502032532 | 54 | 329 | 0.0 | 0.0 | 0.00 | 0.00 | 0.00 | 67 | 1013.6 |
| 20260502031802 | 55 | 329 | 0.0 | 0.0 | 0.00 | 0.00 | 0.00 | 67 | 1013.5 |
| 20260502031302 | 55 | 329 | 0.0 | 0.0 | 0.00 | 0.00 | 0.00 | 67 | 1013.6 |
| 20260502030802 | 55 | 329 | 0.0 | 0.0 | 0.00 | 0.00 | 0.00 | 66 | 1013.5 |
| 20260502030302 | 55 | 329 | 0.0 | 0.0 | 0.00 | 0.00 | 0.00 | 65 | 1013.5 |
| 20260502025802 | 55 | 329 | 0.0 | 0.0 | 0.00 | 0.00 | 0.00 | 63 | 1013.5 |
| 20260502025306 | 56 | 329 | 0.0 | 0.0 | 0.00 | 0.00 | 0.00 | 63 | 1013.5 |
| 20260502024802 | 56 | 329 | 0.0 | 0.0 | 0.00 | 0.00 | 0.00 | 64 | 1013.5 |
| 20260502024302 | 56 | 329 | 0.0 | 0.0 | 0.00 | 0.00 | 0.00 | 62 | 1013.4 |
| 20260502023802 | 56 | 329 | 0.0 | 0.0 | 0.00 | 0.00 | 0.00 | 61 | 1013.2 |
| 20260502023303 | 56 | 329 | 0.0 | 0.0 | 0.00 | 0.00 | 0.00 | 60 | 1013.1 |
| 20260502022803 | 56 | 329 | 0.0 | 0.0 | 0.00 | 0.00 | 0.00 | 60 | 1013.2 |
| 20260502022306 | 57 | 329 | 0.0 | 0.0 | 0.00 | 0.00 | 0.00 | 58 | 1013.1 |
| 20260502021805 | 57 | 329 | 0.0 | 0.0 | 0.00 | 0.00 | 0.00 | 58 | 1012.9 |
| 20260502021527 | 57 | 329 | 0.0 | 0.0 | 0.00 | 0.00 | 0.00 | 58 | 1012.9 |
| 20260502020802 | 57 | 329 | 0.0 | 0.0 | 0.00 | 0.00 | 0.00 | 56 | 1012.8 |
| 20260502020303 | 58 | 329 | 0.0 | 0.0 | 0.00 | 0.00 | 0.00 | 55 | 1012.7 |
| 20260502015803 | 58 | 329 | 0.0 | 0.0 | 0.00 | 0.00 | 0.00 | 54 | 1012.6 |
| 20260502015305 | 58 | 329 | 0.0 | 0.0 | 0.00 | 0.00 | 0.00 | 53 | 1012.4 |
| 20260502015026 | 59 | 329 | 0.0 | 0.0 | 0.00 | 0.00 | 0.00 | 52 | 1012.3 |
| 20260502014302 | 59 | 329 | 0.0 | 0.0 | 0.00 | 0.00 | 0.00 | 49 | 1012.2 |
| 20260502013802 | 60 | 329 | 0.0 | 0.0 | 0.00 | 0.00 | 0.00 | 49 | 1012.2 |
| 20260502013303 | 60 | 329 | 0.0 | 0.0 | 0.00 | 0.00 | 0.00 | 48 | 1012.2 |
| 20260502012810 | 60 | 329 | 0.0 | 0.0 | 0.00 | 0.00 | 0.00 | 47 | 1012.1 |
| 20260502012306 | 61 | 329 | 0.0 | 0.0 | 0.00 | 0.00 | 0.00 | 46 | 1012.1 |
| 20260502011805 | 62 | 329 | 0.0 | 0.0 | 0.00 | 0.00 | 0.00 | 45 | 1012.0 |
| 20260502011303 | 62 | 329 | 0.0 | 0.0 | 0.00 | 0.00 | 0.00 | 44 | 1012.0 |
| 20260502010804 | 62 | 329 | 0.0 | 0.0 | 0.00 | 0.00 | 0.00 | 42 | 1011.9 |
| 20260502010302 | 63 | 329 | 0.0 | 0.0 | 0.00 | 0.00 | 0.00 | 41 | 1011.9 |
| 20260502010022 | 64 | 329 | 0.0 | 0.0 | 0.00 | 0.00 | 0.00 | 41 | 1011.9 |
| 20260502005305 | 64 | 329 | 0.0 | 0.0 | 0.00 | 0.00 | 0.00 | 40 | 1011.7 |
| 20260502005025 | 65 | 329 | 0.0 | 0.0 | 0.00 | 0.00 | 0.00 | 39 | 1011.6 |
| 20260502004302 | 65 | 330 | 0.0 | 0.0 | 0.00 | 0.00 | 0.00 | 36 | 1011.6 |
| 20260502003802 | 65 | 329 | 0.0 | 0.0 | 0.00 | 0.00 | 0.00 | 36 | 1011.5 |
| 20260502003303 | 65 | 329 | 0.0 | 0.0 | 0.00 | 0.00 | 0.00 | 35 | 1011.6 |
| 20260502002803 | 66 | 330 | 0.0 | 0.0 | 0.00 | 0.00 | 0.00 | 33 | 1011.5 |
| 20260502002305 | 66 | 330 | 0.0 | 0.0 | 0.00 | 0.00 | 0.00 | 32 | 1011.4 |
| 20260502001802 | 66 | 330 | 0.0 | 0.0 | 0.00 | 0.00 | 0.00 | 33 | 1011.4 |
| 20260502001259 | 67 | 330 | 0.0 | 0.0 | 0.00 | 0.00 | 0.00 | 32 | 1011.3 |
| 20260502000755 | 67 | 330 | 0.0 | 0.0 | 0.00 | 0.00 | 0.00 | 32 | 1011.3 |
| 20260502000255 | 67 | 329 | 0.0 | 0.0 | 0.00 | 0.00 | 0.00 | 31 | 1011.3 |
| 20260501235755 | 67 | 329 | 0.0 | 0.0 | 0.00 | 0.00 | 0.00 | 31 | 1011.4 |
| 20260501235255 | 67 | 330 | 0.0 | 1.0 | 0.00 | 0.00 | 0.00 | 31 | 1011.4 |
| 20260501235019 | 67 | 329 | 0.0 | 1.0 | 0.00 | 0.00 | 0.00 | 32 | 1011.3 |
| 20260501234253 | 67 | 330 | 0.0 | 0.0 | 0.00 | 0.00 | 0.00 | 30 | 1011.3 |
| 20260501233753 | 67 | 330 | 0.0 | 2.0 | 0.00 | 0.00 | 0.00 | 30 | 1011.3 |
| 20260501233253 | 67 | 330 | 0.0 | 2.0 | 0.00 | 0.00 | 0.00 | 30 | 1011.3 |
| 20260501232750 | 68 | 329 | 0.0 | 2.0 | 0.00 | 0.00 | 0.00 | 31 | 1011.3 |
| 20260501232251 | 68 | 329 | 0.0 | 2.0 | 0.00 | 0.00 | 0.00 | 31 | 1011.2 |
| 20260501231747 | 68 | 329 | 0.0 | 0.0 | 0.00 | 0.00 | 0.00 | 31 | 1011.1 |
| 20260501231247 | 68 | 329 | 0.0 | 0.0 | 0.00 | 0.00 | 0.00 | 29 | 1011.2 |
| 20260501230747 | 68 | 329 | 0.0 | 0.0 | 0.00 | 0.00 | 0.00 | 29 | 1011.1 |
| 20260501230518 | 68 | 330 | 0.0 | 2.0 | 0.00 | 0.00 | 0.00 | 31 | 1011.1 |
| 20260501225746 | 68 | 330 | 0.0 | 2.0 | 0.00 | 0.00 | 0.00 | 28 | 1011.2 |
| 20260501225246 | 68 | 330 | 0.0 | 1.0 | 0.00 | 0.00 | 0.00 | 30 | 1011.2 |
| 20260501224747 | 68 | 330 | 0.0 | 0.0 | 0.00 | 0.00 | 0.00 | 30 | 1011.2 |
| 20260501224246 | 68 | 329 | 0.0 | 2.0 | 0.00 | 0.00 | 0.00 | 30 | 1011.2 |
| 20260501223747 | 68 | 329 | 0.0 | 4.0 | 0.00 | 0.00 | 0.00 | 29 | 1011.1 |
| 20260501223457 | 68 | 329 | 0.0 | 0.0 | 0.00 | 0.00 | 0.00 | 30 | 1011.0 |
| 20260501223247 | 68 | 329 | 0.0 | 4.0 | 0.00 | 0.00 | 0.00 | 31 | 1011.1 |
| 20260501222247 | 68 | 329 | 0.0 | 0.0 | 0.00 | 0.00 | 0.00 | 32 | 1011.1 |
| 20260501222017 | 68 | 329 | 0.0 | 0.0 | 0.00 | 0.00 | 0.00 | 31 | 1011.1 |
| 20260501221246 | 68 | 329 | 0.0 | 0.0 | 0.00 | 0.00 | 0.00 | 31 | 1011.2 |
| 20260501220747 | 68 | 328 | 0.0 | 1.0 | 0.00 | 0.00 | 0.00 | 30 | 1011.3 |
| 20260501220247 | 68 | 328 | 0.0 | 1.0 | 0.00 | 0.00 | 0.00 | 33 | 1011.2 |
| 20260501215747 | 68 | 328 | 0.0 | 4.0 | 0.00 | 0.00 | 0.00 | 33 | 1011.2 |
| 20260501215247 | 67 | 329 | 0.0 | 4.0 | 0.00 | 0.00 | 0.00 | 31 | 1011.3 |
| 20260501214747 | 67 | 327 | 0.0 | 0.0 | 0.00 | 0.00 | 0.00 | 33 | 1011.3 |
| 20260501214246 | 67 | 327 | 0.0 | 0.0 | 0.00 | 0.00 | 0.00 | 30 | 1011.3 |
| 20260501213746 | 67 | 327 | 0.0 | 0.0 | 0.00 | 0.00 | 0.00 | 34 | 1011.4 |
| 20260501213245 | 68 | 327 | 0.0 | 0.0 | 0.00 | 0.00 | 0.00 | 33 | 1011.5 |
| 20260501212743 | 68 | 327 | 0.0 | 0.0 | 0.00 | 0.00 | 0.00 | 34 | 1011.5 |
| 20260501212244 | 68 | 327 | 0.0 | 1.0 | 0.00 | 0.00 | 0.00 | 36 | 1011.6 |
| 20260501211744 | 67 | 327 | 0.0 | 1.0 | 0.00 | 0.00 | 0.00 | 36 | 1011.6 |
| 20260501211244 | 67 | 325 | 0.0 | 1.0 | 0.00 | 0.00 | 0.00 | 35 | 1011.7 |
| 20260501210740 | 67 | 325 | 0.0 | 4.0 | 0.00 | 0.00 | 0.00 | 33 | 1011.9 |
| 20260501210239 | 68 | 325 | 0.0 | 4.0 | 0.00 | 0.00 | 0.00 | 33 | 1012.0 |
| 20260501205735 | 68 | 325 | 0.0 | 3.0 | 0.00 | 0.00 | 0.00 | 34 | 1012.0 |
| 20260501205236 | 67 | 325 | 0.0 | 2.0 | 0.00 | 0.00 | 0.00 | 37 | 1012.2 |
| 20260501204736 | 67 | 325 | 0.0 | 0.0 | 0.00 | 0.00 | 0.00 | 34 | 1012.3 |
| 20260501204234 | 67 | 325 | 0.0 | 0.0 | 0.00 | 0.00 | 0.00 | 33 | 1012.4 |
| 20260501203732 | 67 | 325 | 0.0 | 3.0 | 0.00 | 0.00 | 0.00 | 33 | 1012.7 |
| 20260501203452 | 68 | 325 | 0.0 | 3.0 | 0.00 | 0.00 | 0.00 | 36 | 1012.8 |
| 20260501202731 | 67 | 10 | 0.0 | 3.0 | 0.00 | 0.00 | 0.00 | 35 | 1012.8 |
| 20260501202230 | 67 | 11 | 0.0 | 3.0 | 0.00 | 0.00 | 0.00 | 37 | 1012.9 |
| 20260501201731 | 66 | 34 | 0.0 | 1.0 | 0.00 | 0.00 | 0.00 | 35 | 1012.9 |
| 20260501201231 | 66 | 34 | 0.0 | 1.0 | 0.00 | 0.00 | 0.00 | 36 | 1013.1 |
| 20260501200731 | 66 | 34 | 0.0 | 0.0 | 0.00 | 0.00 | 0.00 | 34 | 1013.2 |
| 20260501200230 | 66 | 34 | 0.0 | 1.0 | 0.00 | 0.00 | 0.00 | 35 | 1013.3 |
| 20260501195731 | 66 | 35 | 0.0 | 1.0 | 0.00 | 0.00 | 0.00 | 35 | 1013.4 |
| 20260501195231 | 66 | 34 | 0.0 | 1.0 | 0.00 | 0.00 | 0.00 | 35 | 1013.6 |
| 20260501194730 | 66 | 34 | 0.0 | 0.0 | 0.00 | 0.00 | 0.00 | 37 | 1013.7 |
| 20260501194717 | 66 | 34 | 0.0 | 0.0 | 0.00 | 0.00 | 0.00 | 33 | 1013.9 |
| 20260501193729 | 66 | 34 | 0.0 | 0.0 | 0.00 | 0.00 | 0.00 | 38 | 1013.9 |
| 20260501193230 | 66 | 34 | 0.0 | 0.0 | 0.00 | 0.00 | 0.00 | 37 | 1014.0 |
| 20260501192730 | 65 | 34 | 0.0 | 0.0 | 0.00 | 0.00 | 0.00 | 37 | 1013.9 |
| 20260501192230 | 65 | 34 | 0.0 | 0.0 | 0.00 | 0.00 | 0.00 | 35 | 1014.1 |
| 20260501191953 | 65 | 34 | 0.0 | 0.0 | 0.00 | 0.00 | 0.00 | 35 | 1014.1 |
| 20260501191231 | 65 | 35 | 0.0 | 1.0 | 0.00 | 0.00 | 0.00 | 38 | 1014.1 |
| 20260501190731 | 65 | 34 | 0.0 | 1.0 | 0.00 | 0.00 | 0.00 | 37 | 1014.1 |
| 20260501190448 | 65 | 34 | 0.0 | 3.0 | 0.00 | 0.00 | 0.00 | 37 | 1014.2 |
| 20260501185730 | 65 | 35 | 0.0 | 3.0 | 0.00 | 0.00 | 0.00 | 36 | 1014.2 |
| 20260501185230 | 64 | 27 | 0.0 | 0.0 | 0.00 | 0.00 | 0.00 | 40 | 1014.3 |
| 20260501184731 | 64 | 27 | 0.0 | 0.0 | 0.00 | 0.00 | 0.00 | 39 | 1014.3 |
| 20260501184231 | 64 | 27 | 0.0 | 0.0 | 0.00 | 0.00 | 0.00 | 35 | 1014.4 |
| 20260501183730 | 64 | 27 | 0.0 | 1.0 | 0.00 | 0.00 | 0.00 | 37 | 1014.5 |
| 20260501183230 | 64 | 27 | 0.0 | 1.0 | 0.00 | 0.00 | 0.00 | 38 | 1014.6 |
| 20260501182956 | 64 | 27 | 0.0 | 1.0 | 0.00 | 0.00 | 0.00 | 40 | 1014.6 |
| 20260501182500 | 64 | 27 | 0.0 | 0.0 | 0.00 | 0.00 | 0.00 | 37 | 1014.7 |
| 20260501181730 | 64 | 27 | 0.0 | 3.0 | 0.00 | 0.00 | 0.00 | 38 | 1014.7 |
| 20260501181231 | 64 | 26 | 0.0 | 3.0 | 0.00 | 0.00 | 0.00 | 38 | 1014.7 |
| 20260501180731 | 65 | 32 | 0.0 | 2.0 | 0.00 | 0.00 | 0.00 | 38 | 1014.7 |
| 20260501180233 | 64 | 32 | 0.0 | 2.0 | 0.00 | 0.00 | 0.00 | 43 | 1014.7 |
| 20260501175731 | 65 | 33 | 0.0 | 1.0 | 0.00 | 0.00 | 0.00 | 45 | 1014.7 |
| 20260501175230 | 65 | 33 | 0.0 | 4.0 | 0.00 | 0.00 | 0.00 | 44 | 1014.7 |
| 20260501174954 | 65 | 35 | 0.0 | 4.0 | 0.00 | 0.00 | 0.00 | 45 | 1014.7 |
| 20260501174227 | 64 | 35 | 0.0 | 2.0 | 0.00 | 0.00 | 0.00 | 45 | 1014.8 |
| 20260501173721 | 64 | 34 | 0.0 | 2.0 | 0.00 | 0.00 | 0.00 | 46 | 1014.7 |
| 20260501173215 | 64 | 34 | 0.0 | 0.0 | 0.00 | 0.00 | 0.00 | 45 | 1014.8 |
| 20260501172709 | 64 | 34 | 0.0 | 0.0 | 0.00 | 0.00 | 0.00 | 50 | 1014.9 |
| 20260501172209 | 64 | 34 | 0.0 | 1.0 | 0.00 | 0.00 | 0.00 | 49 | 1014.9 |
| 20260501171933 | 64 | 34 | 0.0 | 3.0 | 0.00 | 0.00 | 0.00 | 46 | 1014.8 |
| 20260501171210 | 63 | 34 | 0.0 | 4.0 | 0.00 | 0.00 | 0.00 | 48 | 1014.8 |
| 20260501170713 | 63 | 35 | 0.0 | 4.0 | 0.00 | 0.00 | 0.00 | 45 | 1014.9 |
| 20260501170209 | 63 | 34 | 0.0 | 3.0 | 0.00 | 0.00 | 0.00 | 48 | 1014.9 |
| 20260501165708 | 63 | 34 | 0.0 | 1.0 | 0.00 | 0.00 | 0.00 | 51 | 1014.9 |
| 20260501165434 | 62 | 34 | 0.0 | 1.0 | 0.00 | 0.00 | 0.00 | 46 | 1014.8 |
| 20260501165144 | 63 | 34 | 0.0 | 1.0 | 0.00 | 0.00 | 0.00 | 45 | 1014.9 |
| 20260501164427 | 63 | 36 | 0.0 | 0.0 | 0.00 | 0.00 | 0.00 | 48 | 1014.9 |
| 20260501163703 | 62 | 36 | 0.0 | 1.0 | 0.00 | 0.00 | 0.00 | 49 | 1014.9 |
| 20260501163203 | 62 | 36 | 0.0 | 1.0 | 0.00 | 0.00 | 0.00 | 50 | 1014.9 |
| 20260501162922 | 61 | 36 | 0.0 | 1.0 | 0.00 | 0.00 | 0.00 | 52 | 1014.9 |
| 20260501162205 | 62 | 36 | 0.0 | 1.0 | 0.00 | 0.00 | 0.00 | 49 | 1014.9 |
| 20260501162151 | 62 | 36 | 0.0 | 4.0 | 0.00 | 0.00 | 0.00 | 52 | 1014.8 |
| 20260501161203 | 62 | 36 | 0.0 | 5.0 | 0.00 | 0.00 | 0.00 | 52 | 1014.8 |
| 20260501160705 | 61 | 33 | 0.0 | 5.0 | 0.00 | 0.00 | 0.00 | 52 | 1014.9 |
| 20260501160204 | 61 | 30 | 0.0 | 0.0 | 0.00 | 0.00 | 0.00 | 54 | 1014.8 |
| 20260501155703 | 61 | 30 | 0.0 | 0.0 | 0.00 | 0.00 | 0.00 | 55 | 1014.9 |
| 20260501155420 | 61 | 30 | 0.0 | 0.0 | 0.00 | 0.00 | 0.00 | 55 | 1014.8 |
| 20260501154652 | 61 | 30 | 0.0 | 0.0 | 0.00 | 0.00 | 0.00 | 52 | 1014.8 |
| 20260501154148 | 61 | 30 | 0.0 | 0.0 | 0.00 | 0.00 | 0.00 | 55 | 1014.8 |
| 20260501153642 | 60 | 30 | 0.0 | 0.0 | 0.00 | 0.00 | 0.00 | 57 | 1014.7 |
| 20260501153140 | 60 | 30 | 0.0 | 0.0 | 0.00 | 0.00 | 0.00 | 56 | 1014.7 |
| 20260501152637 | 60 | 30 | 0.0 | 0.0 | 0.00 | 0.00 | 0.00 | 57 | 1014.7 |
| 20260501152135 | 59 | 30 | 0.0 | 1.0 | 0.00 | 0.00 | 0.00 | 57 | 1014.7 |
| 20260501151635 | 59 | 30 | 0.0 | 6.0 | 0.00 | 0.00 | 0.00 | 57 | 1014.7 |
| 20260501151136 | 59 | 30 | 0.0 | 6.0 | 0.00 | 0.00 | 0.00 | 60 | 1014.7 |
| 20260501150634 | 59 | 28 | 0.0 | 3.0 | 0.00 | 0.00 | 0.00 | 60 | 1014.6 |
| 20260501150132 | 58 | 21 | 0.0 | 3.0 | 0.00 | 0.00 | 0.00 | 60 | 1014.7 |
| 20260501145631 | 58 | 21 | 0.0 | 3.0 | 0.00 | 0.00 | 0.00 | 61 | 1014.5 |
| 20260501145357 | 58 | 21 | 0.0 | 3.0 | 0.00 | 0.00 | 0.00 | 65 | 1014.6 |
| 20260501144631 | 58 | 17 | 0.0 | 2.0 | 0.00 | 0.00 | 0.00 | 66 | 1014.6 |
| 20260501144131 | 57 | 9 | 0.0 | 1.0 | 0.00 | 0.00 | 0.00 | 67 | 1014.6 |
| 20260501143630 | 57 | 5 | 0.0 | 1.0 | 0.00 | 0.00 | 0.00 | 68 | 1014.6 |
| 20260501143131 | 56 | 5 | 0.0 | 1.0 | 0.00 | 0.00 | 0.00 | 71 | 1014.5 |
| 20260501142631 | 56 | 5 | 0.0 | 1.0 | 0.00 | 0.00 | 0.00 | 72 | 1014.5 |
| 20260501142131 | 55 | 5 | 0.0 | 1.0 | 0.00 | 0.00 | 0.00 | 71 | 1014.5 |
| 20260501141855 | 55 | 5 | 0.0 | 0.0 | 0.00 | 0.00 | 0.00 | 74 | 1014.6 |
| 20260501141130 | 55 | 5 | 0.0 | 0.0 | 0.00 | 0.00 | 0.00 | 81 | 1014.5 |
| 20260501140636 | 54 | 5 | 0.0 | 0.0 | 0.00 | 0.00 | 0.00 | 80 | 1014.4 |
| 20260501140621 | 54 | 5 | 0.0 | 0.0 | 0.00 | 0.00 | 0.00 | 82 | 1014.5 |
| 20260501135627 | 53 | 5 | 0.0 | 0.0 | 0.00 | 0.00 | 0.00 | 82 | 1014.4 |